SWR41GL KLAX-LSZH

Flight info

Callsign SWR41GL
Flight time N/A
Altitude 35000
Route OSHNN1 BEALE J146 DICEE DCT KD45Q DCT KD54U DCT KD69A/N0493F370 DCT KP75C DCT KP81E DCT KP87G DCT KP12M DCT VETRO DCT 5330N07000W/N0482F390 DCT DORYY/M084F400 NATT KESIX/N0488F410 DCT REVNU DCT CON DCT LIPGO DCT NUCHU DCT BOGNA UL612 VEULE/N0489F350 DCT TEPRI UN491 POGZI DCT GELTA DCT MANAG DCT PEVIT DCT BLM
Aircraft A359/H-SDE2E3GHIJ3J4J5LM1ORWXY/LB1D1

Departure

Time N/A
Airport Los Angeles International Airport (KLAX)

Arrival

Time 2026-05-01 10:26
Airport Zürich Airport (LSZH)
Time Latitude Longitude Altitude Speed Heading
2026-05-01 10:10 47.80437 6.67961 28482 ft 487 kts 106°
2026-05-01 10:10 47.79453 6.72754 27692 ft 483 kts 106°
2026-05-01 10:10 47.77505 6.82210 26358 ft 472 kts 106°
2026-05-01 10:11 47.76544 6.86858 25623 ft 469 kts 106°
2026-05-01 10:11 47.75588 6.91467 24949 ft 465 kts 106°
2026-05-01 10:11 47.74637 6.96051 24286 ft 461 kts 106°
2026-05-01 10:11 47.73694 7.00579 23594 ft 457 kts 106°
2026-05-01 10:12 47.72769 7.05010 22862 ft 453 kts 106°
2026-05-01 10:12 47.71844 7.09440 22212 ft 446 kts 107°
2026-05-01 10:12 47.70027 7.18104 21004 ft 434 kts 107°
2026-05-01 10:13 47.69132 7.22359 20437 ft 428 kts 107°
2026-05-01 10:13 47.68252 7.26536 19847 ft 423 kts 107°
2026-05-01 10:13 47.67373 7.30691 19225 ft 419 kts 107°
2026-05-01 10:14 47.65651 7.38810 17938 ft 412 kts 107°
2026-05-01 10:14 47.64787 7.42885 17300 ft 407 kts 107°
2026-05-01 10:14 47.63952 7.46806 16680 ft 402 kts 107°
2026-05-01 10:14 47.63114 7.50740 16074 ft 398 kts 107°
2026-05-01 10:15 47.62241 7.54620 15459 ft 395 kts 109°
2026-05-01 10:15 47.61333 7.58444 14832 ft 392 kts 109°
2026-05-01 10:15 47.60431 7.62233 14219 ft 389 kts 109°
2026-05-01 10:15 47.59537 7.66007 13554 ft 386 kts 109°
2026-05-01 10:16 47.58659 7.69735 12931 ft 381 kts 109°
2026-05-01 10:16 47.57802 7.73370 12470 ft 376 kts 109°
2026-05-01 10:16 47.56096 7.80625 11511 ft 374 kts 109°
2026-05-01 10:17 47.55253 7.84191 11247 ft 355 kts 109°
2026-05-01 10:17 47.53745 7.90556 10620 ft 305 kts 109°
2026-05-01 10:17 47.53059 7.93442 10176 ft 291 kts 109°
2026-05-01 10:18 47.51770 7.98889 9392 ft 278 kts 109°
2026-05-01 10:18 47.51170 8.01623 9098 ft 280 kts 104°
2026-05-01 10:18 47.51081 8.04439 8620 ft 278 kts 80°
2026-05-01 10:19 47.51270 8.05462 8416 ft 278 kts 69°
2026-05-01 10:19 47.52170 8.07740 8043 ft 278 kts 56°
2026-05-01 10:19 47.53302 8.10081 7720 ft 280 kts 56°
2026-05-01 10:20 47.55505 8.14773 7087 ft 276 kts 56°
2026-05-01 10:20 47.56597 8.17095 6781 ft 274 kts 57°
2026-05-01 10:20 47.57660 8.19367 6548 ft 261 kts 57°
2026-05-01 10:20 47.58673 8.21510 6415 ft 247 kts 56°
2026-05-01 10:21 47.59576 8.23575 6174 ft 240 kts 63°
2026-05-01 10:21 47.60954 8.27948 5594 ft 230 kts 66°
2026-05-01 10:21 47.61618 8.30106 5182 ft 229 kts 67°
2026-05-01 10:22 47.61777 8.34319 4889 ft 205 kts 114°
2026-05-01 10:22 47.59953 8.37552 4577 ft 208 kts 139°
2026-05-01 10:23 47.58874 8.38984 4321 ft 208 kts 135°
2026-05-01 10:23 47.56795 8.41861 3724 ft 205 kts 135°
2026-05-01 10:23 47.55739 8.43307 3477 ft 208 kts 136°
2026-05-01 10:24 47.53683 8.46120 2920 ft 190 kts 134°
2026-05-01 10:24 47.51829 8.48638 2452 ft 168 kts 135°
2026-05-01 10:25 47.50242 8.50818 2017 ft 145 kts 129°
2026-05-01 10:25 47.48822 8.52751 1623 ft 141 kts 134°
2026-05-01 10:26 47.48098 8.53749 1433 ft 142 kts 133°
2026-05-01 10:26 47.47437 8.54661 1406 ft 110 kts 136°
2026-05-01 10:26 47.46744 8.55585 1410 ft 25 kts 146°
2026-05-01 10:27 47.46478 8.55716 1407 ft 15 kts 168°
2026-05-01 10:27 47.46368 8.55777 1414 ft 10 kts 138°
2026-05-01 10:28 47.46313 8.55851 1415 ft 11 kts 137°
2026-05-01 10:28 47.46180 8.56001 1413 ft 12 kts 175°
2026-05-01 10:28 47.46087 8.55989 1416 ft 15 kts 185°
2026-05-01 10:29 47.45938 8.55876 1417 ft 13 kts 271°
2026-05-01 10:29 47.45948 8.55740 1410 ft 12 kts 276°
2026-05-01 10:30 47.45966 8.55484 1412 ft 13 kts 276°
2026-05-01 10:30 47.45980 8.55294 1407 ft 7 kts 276°
2026-05-01 10:31 47.46039 8.55237 1405 ft 5 kts
2026-05-01 10:31 47.46062 8.55241 1403 ft 3 kts
2026-05-01 10:32 47.46070 8.55242 1401 ft 0 kts